Weather in Inzhavino

Russia / Tambov Oblast     52°19′14″N   42°29′17″E
temp.,
°C
wind,
m/s
gust,
m/s
humid.,
%
clouds,
%
prec.,
mm/h
press.,
hPa
HPBL,
m
6 august, fri
fri600:00+21se364391 0.0 1016126
03:00+19se475190 0.0 1015130
06:00+19sse385587 0.0 1016225
09:00+25sse464188 0.0 1015648
12:00+29sse56308 0.0 10152063
15:00+31sse662827 0.0 10132725
18:00+28se593644 0.0 1012422
21:00+24se6134485 0.0 1013292
7 august, sat
sat700:00+22se6153915 0.0 1013336
03:00+20se51446100 0.0 1013333
06:00+20se51348100 0.0 1014317
09:00+26sse6934100 0.0 1014626
12:00+30sse56253 0.0 10131672
15:00+32se67242 0.0 10122224
18:00+30se5829100 0.0 1012490
21:00+23ese4104178 0.0 1013172
8 august, sun
sun800:00+21ese4114076 0.0 1014171
03:00+20ese4114196 0.0 1014191
06:00+20ese3944100 0.0 1014162
09:00+27se573175 0.0 1015400
12:00+33se5622100 0.0 10141264
15:00+34sse552075 0.0 10152519
18:00+29s3432100 0.0 101686
21:00+26se3432100 0.0 101762
9 august, mon
mon900:00+25se2232100 0.0 101822
03:00+25ene3633100 0.0 1018108
06:00+24s1139100 0.0 101918
09:00+24ene3442100 0.0 1019106
12:00+26ne3743100 0.0 1018326
15:00+28e4741100 0.0 1019552
18:00+24ene4750100 0.1 1018202
21:00+25ne51146100 0.1 1018240
10 august, tue
tue1000:00+23ene5135161 0.0 1017260
03:00+22e41050100 0.0 1016177
06:00+22ene384179 0.0 1016170
09:00+29ese5830100 0.0 1015580
12:00+33ese672290 0.0 10141779
15:00+34ese6722100 0.0 10122558
18:00+31e4828100 0.0 1011278
21:00+28e61333100 0.0 1011353